IW1QLH-11 Weather Reports


time (UTC)temp
C
wind
direction
speed
KPH
gust
KPH
rain 1hr
cm
rain 24hr
cm
rain mn
cm
humidity
%
barometer
mb
20260505053001 -17 0.0 1.6 0.00 0.00 0.00 1003.0
20260505051502 -17 0.0 1.6 0.00 0.00 0.00 1003.0
20260505041501 -17 0.0 1.6 0.00 0.00 0.00 1003.0
20260505040001 -17 0.0 4.8 0.00 0.00 0.00 1003.0
20260505034502 -17 0.0 1.6 0.00 0.00 0.00 1003.1
20260505033002 -17 3.2 8.0 0.00 0.00 0.00 1003.0
20260505031501 -17 1.6 4.8 0.00 0.00 0.00 1003.9
20260505030001 -17 1.6 1.6 0.00 0.00 0.00 1003.8
20260505024501 -17 0.0 1.6 0.00 0.00 0.00 1004.1
20260505023002 -17 0.0 0.0 0.00 0.00 0.00 1004.4
20260505021502 -17 3.2 4.8 0.00 0.00 0.00 1004.2
20260505020001 -17 0.0 6.4 0.00 0.00 0.00 1004.3
20260505014501 -17 3.2 4.8 0.00 0.00 0.00 1004.1
20260505013001 -17 0.0 4.8 0.00 0.00 0.00 1004.5
20260505011501 -17 1.6 4.8 0.00 0.00 0.00 1004.9
20260505010002 -17 1.6 3.2 0.00 0.00 0.00 1005.3
20260505004502 -17 1.6 3.2 0.00 0.00 0.00 1005.5
20260505003001 -17 1.6 3.2 0.00 0.00 0.00 1005.9
20260505001501 -17 0.0 1.6 0.00 0.00 0.00 1006.1
20260505000001 -17 0.0 4.8 0.00 0.00 0.00 1006.0
20260504234501 -17 1.6 4.8 0.00 0.00 0.00 1006.2
20260504233002 -17 3.2 4.8 0.00 0.00 0.00 1006.3
20260504231503 -17 3.2 4.8 0.00 0.00 0.00 1006.8
20260504230001 -17 3.2 6.4 0.00 0.00 0.00 1007.0
20260504224501 -17 1.6 4.8 0.18 0.00 0.00 1007.2
20260504223001 -17 1.6 1.6 0.18 0.00 0.00 1007.4
20260504221502 -17 1.6 4.8 0.18 0.00 0.00 1007.2
20260504214709 -17 1.6 3.2 0.08 0.00 0.00 1008.0
20260504213208 -17 0.0 1.6 0.00 0.00 0.00 1007.9
20260504211709 -17 0.0 1.6 0.00 0.00 0.00 1008.1
20260504210208 -17 0.0 4.8 0.00 0.00 0.00 1008.2
20260504204709 -17 1.6 6.4 0.00 0.00 0.00 1008.5
20260504203208 -17 0.0 3.2 0.00 0.00 0.00 1008.5
20260504201709 -17 1.6 6.4 0.00 0.00 0.00 1008.3
20260504200208 -17 3.2 6.4 0.00 0.00 0.00 1008.5
20260504194709 -17 0.0 3.2 0.00 0.00 0.00 1008.5
20260504193209 -17 3.2 9.7 0.00 0.00 0.00 1008.8
20260504191709 -17 1.6 4.8 0.00 0.00 0.00 1008.9
20260504190208 -17 3.2 4.8 0.00 0.00 0.00 1008.6
20260504184709 -17 1.6 4.8 0.00 0.00 0.00 1008.5
20260504183208 -17 1.6 6.4 0.00 0.00 0.00 1008.2
20260504181709 -17 1.6 6.4 0.00 0.00 0.00 1008.3
20260504180208 -17 1.6 6.4 0.00 0.00 0.00 1008.6
20260504174709 -17 0.0 3.2 0.00 0.00 0.00 1008.6
20260504173208 -17 0.0 6.4 0.00 0.00 0.00 1008.6
20260504171709 -17 3.2 6.4 0.00 0.00 0.00 1008.7
20260504170208 -17 3.2 8.0 0.00 0.00 0.00 1008.6
20260504160208 -17 6.4 12.9 0.00 0.00 0.00 1009.0
20260504150208 -17 9.7 20.9 0.00 0.00 0.00 1009.2
20260504140208 -17 9.7 25.7 0.00 0.00 0.00 1009.4
20260504130208 -17 4.8 12.9 0.00 0.00 0.00 1009.7
20260504120208 -17 4.8 9.7 0.00 0.00 0.00 1010.4
20260504110209 -17 6.4 14.5 0.00 0.00 0.00 1010.3
20260504100208 -17 4.8 11.3 0.00 0.00 0.00 1010.5
20260504081502 -17 4.8 6.4 0.00 0.00 0.00 1010.4